CW7762 Weather Reports


time (UTC)temp
C
wind
direction
speed
KPH
gust
KPH
rain 1hr
cm
rain 24hr
cm
rain mn
cm
humidity
%
barometer
mb
20260503223225 18 213 20.9 37.0 0.00 0.13 0.13 50 1008.2
20260503220225 18 204 17.7 37.0 0.00 0.13 0.13 49 1008.5
20260503213224 18 211 32.2 54.7 0.00 0.13 0.13 46 1008.9
20260503210225 17 213 12.9 53.1 0.00 0.13 0.13 47 1009.2
20260503203225 17 182 27.4 46.7 0.00 0.13 0.13 44 1009.8
20260503200224 17 160 37.0 57.9 0.00 0.13 0.13 46 1010.2
20260503193224 17 221 29.0 54.7 0.00 0.13 0.13 47 1010.4
20260503190224 17 193 29.0 54.7 0.00 0.13 0.13 49 1011.1
20260503183224 16 180 25.7 43.5 0.00 0.13 0.13 61 1011.7
20260503180224 12 157 16.1 20.9 0.03 0.13 0.13 78 1012.8
20260503170224 11 163 9.7 25.7 0.05 0.10 0.10 80 1014.4
20260503150223 12 222 22.5 48.3 0.00 0.00 0.00 58 1015.2
20260503140223 12 217 12.9 41.8 0.00 0.00 0.00 61 1015.8
20260503110223 6 192 9.7 25.7 0.00 0.00 0.00 67 1015.8
20260503100222 6 221 11.3 19.3 0.00 0.00 0.00 67 1016.0
20260503090222 6 230 11.3 14.5 0.00 0.00 0.00 65 1016.4
20260503080222 7 225 11.3 20.9 0.00 0.00 0.00 62 1016.5
20260503070222 7 230 11.3 22.5 0.00 0.00 0.00 61 1016.6
20260503060222 7 217 12.9 19.3 0.00 0.00 0.00 60 1017.1
20260503053221 7 213 9.7 16.1 0.00 0.00 0.00 61 1017.2
20260503050222 7 211 6.4 14.5 0.00 0.00 0.00 60 1017.4
20260503043221 8 202 9.7 12.9 0.00 0.00 0.00 59 1017.5
20260503040221 8 190 6.4 12.9 0.00 0.00 0.00 58 1017.6
20260503033221 8 201 6.4 12.9 0.00 0.00 0.00 57 1017.6
20260503030221 8 200 8.0 12.9 0.00 0.00 0.00 57 1017.7
20260503023221 8 209 6.4 11.3 0.00 0.00 0.00 57 1017.6
20260503020221 10 191 3.2 6.4 0.00 0.00 0.00 54 1017.8
20260503013221 11 209 1.6 8.0 0.00 0.00 0.00 51 1017.6
20260503010221 12 226 1.6 6.4 0.00 0.00 0.00 48 1017.5
20260503003221 12 236 3.2 14.5 0.00 0.00 0.00 46 1017.5
20260503000221 12 269 6.4 8.0 0.00 0.00 0.00 44 1017.5
20260502233221 13 218 11.3 19.3 0.00 0.00 0.00 41 1017.5
20260502230221 12 250 9.7 19.3 0.00 0.00 0.00 45 1017.5